| time (UTC) | temp F | wind direction | speed MPH | gust MPH | rain 1hr in | rain 24hr in | rain mn in | humidity % | barometer mb |
| 20260904193048 | 83 | 252 | 2.0 | 8.0 | 0.00 | 0.02 | 0.02 | 36 | 1021.0 |
| 20260904191540 | 82 | 209 | 5.0 | 9.0 | 0.00 | 0.02 | 0.02 | 37 | 1021.3 |
| 20260904190035 | 80 | 221 | 3.0 | 7.0 | 0.00 | 0.02 | 0.02 | 37 | 1021.5 |
| 20260904184533 | 79 | 319 | 5.0 | 12.0 | 0.00 | 0.02 | 0.02 | 40 | 1021.8 |
| 20260904183029 | 77 | 245 | 6.0 | 10.0 | 0.00 | 0.02 | 0.02 | 44 | 1021.9 |
| 20260904181525 | 75 | 216 | 2.0 | 11.0 | 0.00 | 0.02 | 0.02 | 46 | 1022.2 |
| 20260904180023 | 75 | 236 | 6.0 | 11.0 | 0.00 | 0.02 | 0.02 | 47 | 1022.2 |
| 20260904174521 | 74 | 232 | 4.0 | 10.0 | 0.00 | 0.02 | 0.02 | 49 | 1022.4 |
| 20260904173020 | 74 | 242 | 5.0 | 12.0 | 0.00 | 0.02 | 0.02 | 50 | 1022.5 |
| 20260904171516 | 73 | 205 | 7.0 | 10.0 | 0.00 | 0.02 | 0.02 | 53 | 1022.6 |
| 20260904170017 | 72 | 236 | 4.0 | 7.0 | 0.00 | 0.02 | 0.02 | 55 | 1022.5 |
| 20260904164510 | 71 | 286 | 2.0 | 6.0 | 0.00 | 0.02 | 0.02 | 59 | 1022.3 |
| 20260904163009 | 70 | 290 | 0.0 | 4.0 | 0.00 | 0.02 | 0.02 | 56 | 1022.2 |
| 20260904161507 | 70 | 310 | 0.0 | 6.0 | 0.00 | 0.02 | 0.02 | 57 | 1022.1 |
| 20260904160009 | 70 | 296 | 4.0 | 8.0 | 0.00 | 0.02 | 0.02 | 58 | 1022.1 |
| 20260904154506 | 70 | 298 | 2.0 | 8.0 | 0.00 | 0.02 | 0.02 | 61 | 1022.1 |
| 20260904153002 | 68 | 230 | 2.0 | 8.0 | 0.00 | 0.02 | 0.02 | 63 | 1022.2 |
| 20260904151558 | 67 | 196 | 2.0 | 5.0 | 0.00 | 0.02 | 0.02 | 66 | 1022.1 |
| 20260904150057 | 66 | 201 | 2.0 | 4.0 | 0.00 | 0.02 | 0.02 | 69 | 1022.1 |
| 20260904144556 | 65 | 221 | 0.0 | 3.0 | 0.00 | 0.02 | 0.02 | 70 | 1022.0 |
| 20260904143054 | 64 | 222 | 1.0 | 3.0 | 0.00 | 0.02 | 0.02 | 75 | 1021.9 |
| 20260904141555 | 63 | 222 | 0.0 | 2.0 | 0.00 | 0.02 | 0.02 | 84 | 1021.9 |
| 20260904140051 | 62 | 221 | 0.0 | 0.0 | 0.00 | 0.02 | 0.02 | 85 | 1021.7 |
| 20260904134549 | 62 | 221 | 0.0 | 0.0 | 0.00 | 0.02 | 0.02 | 86 | 1021.6 |
| 20260904133046 | 61 | 222 | 0.0 | 0.0 | 0.00 | 0.02 | 0.02 | 86 | 1021.3 |
| 20260904131555 | 61 | 221 | 0.0 | 2.0 | 0.00 | 0.02 | 0.02 | 85 | 1021.2 |
| 20260904130138 | 61 | 222 | 0.0 | 0.0 | 0.00 | 0.02 | 0.02 | 85 | 1021.0 |
| 20260904124536 | 61 | 221 | 0.0 | 1.0 | 0.00 | 0.02 | 0.02 | 83 | 1020.9 |
| 20260904123034 | 61 | 221 | 0.0 | 0.0 | 0.00 | 0.02 | 0.02 | 81 | 1020.8 |
| 20260904121532 | 61 | 222 | 0.0 | 1.0 | 0.01 | 0.02 | 0.02 | 80 | 1020.7 |
| 20260904120037 | 62 | 221 | 0.0 | 2.0 | 0.02 | 0.02 | 0.02 | 79 | 1020.7 |
| 20260904114528 | 62 | 222 | 1.0 | 5.0 | 0.02 | 0.02 | 0.02 | 78 | 1020.5 |
| 20260904113026 | 63 | 148 | 4.0 | 8.0 | 0.02 | 0.02 | 0.02 | 76 | 1020.3 |
| 20260904111524 | 64 | 259 | 3.0 | 7.0 | 0.01 | 0.01 | 0.01 | 75 | 1020.5 |
| 20260904110019 | 65 | 234 | 0.0 | 7.0 | 0.00 | 0.00 | 0.00 | 71 | 1020.1 |
| 20260904104518 | 66 | 222 | 2.0 | 7.0 | 0.00 | 0.00 | 0.00 | 67 | 1020.0 |
| 20260904103016 | 66 | 65 | 1.0 | 3.0 | 0.00 | 0.00 | 0.00 | 65 | 1020.1 |
| 20260904100015 | 66 | 65 | 0.0 | 4.0 | 0.00 | 0.00 | 0.00 | 62 | 1019.8 |
| 20260904094515 | 66 | 68 | 6.0 | 10.0 | 0.00 | 0.00 | 0.00 | 64 | 1019.6 |
| 20260904093014 | 65 | 63 | 8.0 | 11.0 | 0.00 | 0.00 | 0.00 | 66 | 1019.7 |
| 20260904090009 | 66 | 360 | 1.0 | 2.0 | 0.00 | 0.00 | 0.00 | 65 | 1019.9 |
| 20260904084506 | 66 | 360 | 0.0 | 0.0 | 0.00 | 0.00 | 0.00 | 60 | 1020.0 |
| 20260904083004 | 67 | 360 | 0.0 | 0.0 | 0.00 | 0.00 | 0.00 | 56 | 1019.9 |
| 20260904081602 | 67 | 360 | 1.0 | 2.0 | 0.00 | 0.00 | 0.00 | 56 | 1019.9 |
| 20260904080002 | 67 | 360 | 0.0 | 1.0 | 0.00 | 0.00 | 0.00 | 56 | 1019.9 |
| 20260904074502 | 67 | 360 | 0.0 | 2.0 | 0.00 | 0.00 | 0.00 | 55 | 1020.0 |
| 20260904073102 | 67 | 360 | 0.0 | 0.0 | 0.00 | 0.00 | 0.00 | 54 | 1020.1 |
| 20260904071557 | 67 | 360 | 0.0 | 2.0 | 0.00 | 0.00 | 0.00 | 53 | 1020.0 |
| 20260904070119 | 68 | 360 | 0.0 | 2.0 | 0.00 | 0.00 | 0.00 | 52 | 1020.1 |
| 20260904064555 | 68 | 9 | 2.0 | 4.0 | 0.00 | 0.00 | 0.00 | 52 | 1020.1 |
| 20260904063101 | 68 | 9 | 0.0 | 4.0 | 0.00 | 0.00 | 0.00 | 50 | 1020.1 |
| 20260904061550 | 69 | 59 | 1.0 | 3.0 | 0.00 | 0.00 | 0.00 | 49 | 1020.1 |
| 20260904060047 | 69 | 59 | 0.0 | 2.0 | 0.00 | 0.00 | 0.00 | 48 | 1020.1 |
| 20260904054547 | 70 | 59 | 1.0 | 3.0 | 0.00 | 0.00 | 0.00 | 48 | 1020.0 |
| 20260904053047 | 70 | 59 | 2.0 | 4.0 | 0.00 | 0.00 | 0.00 | 47 | 1020.2 |
| 20260904051546 | 71 | 60 | 0.0 | 0.0 | 0.00 | 0.00 | 0.00 | 46 | 1020.3 |
| 20260904050046 | 71 | 60 | 0.0 | 0.0 | 0.00 | 0.00 | 0.00 | 45 | 1020.2 |
| 20260904044544 | 72 | 60 | 1.0 | 4.0 | 0.00 | 0.00 | 0.00 | 43 | 1020.4 |
| 20260904043053 | 72 | 60 | 0.0 | 6.0 | 0.00 | 0.00 | 0.00 | 43 | 1020.3 |
| 20260904041544 | 72 | 55 | 3.0 | 6.0 | 0.00 | 0.00 | 0.00 | 43 | 1020.3 |
| 20260904040100 | 72 | 59 | 2.0 | 7.0 | 0.00 | 0.00 | 0.00 | 44 | 1020.3 |
| 20260904034544 | 72 | 30 | 1.0 | 4.0 | 0.00 | 0.00 | 0.00 | 44 | 1020.3 |
| 20260904033043 | 72 | 19 | 2.0 | 6.0 | 0.00 | 0.00 | 0.00 | 44 | 1020.3 |
| 20260904031542 | 72 | 355 | 4.0 | 10.0 | 0.00 | 0.00 | 0.00 | 42 | 1020.2 |
| 20260904030042 | 73 | 338 | 6.0 | 11.0 | 0.00 | 0.00 | 0.00 | 41 | 1020.1 |
| 20260904024542 | 73 | 324 | 8.0 | 14.0 | 0.00 | 0.00 | 0.00 | 41 | 1019.9 |
| 20260904023047 | 74 | 272 | 1.0 | 4.0 | 0.00 | 0.00 | 0.00 | 41 | 1019.7 |
| 20260904021541 | 74 | 261 | 2.0 | 8.0 | 0.00 | 0.00 | 0.00 | 40 | 1019.5 |
| 20260904020040 | 75 | 284 | 3.0 | 11.0 | 0.00 | 0.00 | 0.00 | 40 | 1019.4 |
| 20260904014602 | 77 | 259 | 8.0 | 18.0 | 0.00 | 0.00 | 0.00 | 37 | 1019.3 |
| 20260904013041 | 79 | 225 | 6.0 | 14.0 | 0.00 | 0.00 | 0.00 | 32 | 1019.0 |
| 20260904011538 | 79 | 256 | 7.0 | 12.0 | 0.00 | 0.00 | 0.00 | 31 | 1018.9 |
| 20260904010042 | 80 | 241 | 5.0 | 14.0 | 0.00 | 0.00 | 0.00 | 30 | 1018.8 |
| 20260904004538 | 81 | 231 | 6.0 | 13.0 | 0.00 | 0.00 | 0.00 | 29 | 1018.8 |
| 20260904003037 | 82 | 243 | 6.0 | 10.0 | 0.00 | 0.00 | 0.00 | 28 | 1018.9 |
| 20260904001536 | 83 | 237 | 6.0 | 12.0 | 0.00 | 0.00 | 0.00 | 27 | 1018.9 |
| 20260904000037 | 84 | 238 | 9.0 | 15.0 | 0.00 | 0.00 | 0.00 | 27 | 1018.9 |
| 20260903234536 | 85 | 225 | 6.0 | 11.0 | 0.00 | 0.00 | 0.00 | 27 | 1018.9 |
| 20260903233041 | 85 | 226 | 7.0 | 11.0 | 0.00 | 0.00 | 0.00 | 26 | 1018.9 |
| 20260903231534 | 85 | 242 | 5.0 | 13.0 | 0.00 | 0.00 | 0.00 | 26 | 1018.9 |
| 20260903230033 | 84 | 274 | 6.0 | 14.0 | 0.00 | 0.00 | 0.00 | 27 | 1019.0 |
| 20260903224531 | 83 | 218 | 6.0 | 10.0 | 0.00 | 0.00 | 0.00 | 28 | 1019.1 |
| 20260903223030 | 84 | 304 | 7.0 | 13.0 | 0.00 | 0.00 | 0.00 | 26 | 1019.2 |
| 20260903221530 | 86 | 229 | 9.0 | 16.0 | 0.00 | 0.00 | 0.00 | 25 | 1019.2 |
| 20260903220029 | 88 | 236 | 4.0 | 15.0 | 0.00 | 0.00 | 0.00 | 25 | 1019.3 |
| 20260903214528 | 89 | 240 | 12.0 | 16.0 | 0.00 | 0.00 | 0.00 | 24 | 1019.4 |
| 20260903213025 | 88 | 192 | 8.0 | 15.0 | 0.00 | 0.00 | 0.00 | 24 | 1019.6 |
| 20260903211521 | 86 | 219 | 6.0 | 13.0 | 0.00 | 0.00 | 0.00 | 25 | 1019.6 |
| 20260903210019 | 84 | 234 | 8.0 | 17.0 | 0.00 | 0.00 | 0.00 | 26 | 1019.9 |
| 20260903204519 | 83 | 236 | 1.0 | 10.0 | 0.00 | 0.00 | 0.00 | 27 | 1020.0 |
| 20260903203018 | 85 | 286 | 5.0 | 14.0 | 0.00 | 0.00 | 0.00 | 25 | 1020.1 |
| 20260903201517 | 86 | 222 | 7.0 | 14.0 | 0.00 | 0.00 | 0.00 | 25 | 1020.2 |
| 20260903200014 | 86 | 241 | 4.0 | 12.0 | 0.00 | 0.00 | 0.00 | 25 | 1020.4 |
| 20260903194513 | 85 | 234 | 9.0 | 17.0 | 0.00 | 0.00 | 0.00 | 25 | 1020.6 |